Tracking 22993 objects as of 10-May-2021
HD Live streaming from Space Station
objects crossing your sky now

SL-8 DEB

Track SL-8 DEB now!
10-day predictions


NORAD ID: 25563
Int'l Code: 1990-111D
Perigee: 755.7 km
Apogee: 786.7 km
Inclination: 74.0 °
Period: 100.1 minutes
Semi major axis: 7142 km
RCS: 0.0108 m2 (small)
Launch date: December 10, 1990
Source: Commonwealth of Independent States (former USSR) (CIS)
Launch site: PLESETSK MISSILE AND SPACE COMPLEX (PKMTR)

Note: This is SATELLITE DEBRIS
aabbcc
Your satellite tracking list
Your tracking list is empty




NASA's NSSDC Master Catalog

Two Line Element Set (TLE):
1 25563U 90111D   21129.40779201  .00000181  00000-0  67937-4 0  9994
2 25563  74.0484 120.7897 0021701 311.4324 199.1891 14.38320250589898
Source of the keplerian elements: AFSPC